This is the latest recevied weather packets stored in our database for station/object IK2YOU-3. If no packets are shown the sender has not sent any weather packets the latest 10 day(s).
| Time | Temp. | Humidity | Pressure | Rain* | Wind** | Luminosity | Snow |
|---|---|---|---|---|---|---|---|
| 1777646048 | 21.67° C | 32% | 1023.3 hPa | 0 mm | - | 349 W/m² | - |
| 1777645449 | 21.67° C | 31% | 1023.4 hPa | 0 mm | - | 344 W/m² | - |
| 1777644849 | 21.67° C | 31% | 1023.5 hPa | 0 mm | - | 371 W/m² | - |
| 1777644261 | 22.22° C | 31% | 1023.6 hPa | 0 mm | - | 372 W/m² | - |
| 1777643648 | 21.67° C | 32% | 1023.7 hPa | 0 mm | - | 414 W/m² | - |
| 1777643174 | 22.22° C | 31% | 1023.8 hPa | 0 mm | - | 411 W/m² | - |
| 1777642446 | 21.67° C | 31% | 1024 hPa | 0 mm | - | 419 W/m² | - |
| 1777641846 | 21.11° C | 32% | 1024 hPa | 0 mm | - | 479 W/m² | - |
| 1777641371 | 21.67° C | 35% | 1024.2 hPa | 0 mm | - | 437 W/m² | - |
| 1777640772 | 21.11° C | 32% | 1024.2 hPa | 0 mm | - | 461 W/m² | - |
| 1777640043 | 21.11° C | 32% | 1024.4 hPa | 0 mm | - | 528 W/m² | - |
| 1777639443 | 21.11° C | 35% | 1024.4 hPa | 0 mm | - | 514 W/m² | - |
| 1777638843 | 21.11° C | 33% | 1024.5 hPa | 0 mm | - | 487 W/m² | - |
| 1777638243 | 20.56° C | 34% | 1024.7 hPa | 0 mm | - | 495 W/m² | - |
| 1777637772 | 20.56° C | 33% | 1024.7 hPa | 0 mm | - | 519 W/m² | - |
| 1777637173 | 20° C | 35% | 1024.7 hPa | 0 mm | - | 513 W/m² | - |
| 1777636443 | 20.56° C | 33% | 1024.9 hPa | 0 mm | - | 565 W/m² | - |
| 1777635970 | 20° C | 33% | 1024.9 hPa | 0 mm | - | 548 W/m² | - |
| 1777635371 | 20.56° C | 34% | 1025.1 hPa | 0 mm | - | 576 W/m² | - |
| 1777634643 | 20° C | 34% | 1025.2 hPa | 0 mm | - | 594 W/m² | - |
| 1777634173 | 20° C | 35% | 1025.3 hPa | 0 mm | - | 535 W/m² | - |
| 1777633443 | 19.44° C | 35% | 1025.4 hPa | 0 mm | - | 546 W/m² | - |
| 1777632843 | 19.44° C | 34% | 1025.5 hPa | 0 mm | - | 476 W/m² | - |
| 1777632243 | 18.89° C | 35% | 1025.5 hPa | 0 mm | - | 492 W/m² | - |
| 1777631771 | 18.89° C | 34% | 1025.6 hPa | 0 mm | - | 612 W/m² | - |
* Rain latest hour (hover to see other rain measurements)
** Current wind speed in m/s (hover to see current wind gust speed)